• In Hungary
  • List of Countries
  • For 7 days
  • Water Temperature
  • Satellite Maps
  • Weather Map
  • News
  • Weather Widgets
  • user-avatar
    Login

    Hourly Weather Overijse

    Today, 22 February, Thursday

    Time Temperature Precipitation Wind Pressure Humidity
    00:00 -4°C° 0 mm 3 mps 758 mmHg 80%
    01:00 -4°C° 0 mm 4 mps 758 mmHg 81%
    02:00 -4°C° 0 mm 4 mps 758 mmHg 81%
    03:00 -4°C° 0 mm 4 mps 757 mmHg 82%
    04:00 -4°C° 0 mm 4 mps 757 mmHg 80%
    05:00 -4°C° 0 mm 4 mps 757 mmHg 79%
    06:00 -4°C° 0 mm 4 mps 758 mmHg 77%
    07:00 -4°C° 0 mm 5 mps 758 mmHg 70%
    08:00 -2°C° 0 mm 5 mps 758 mmHg 62%
    09:00 -2°C° 0 mm 6 mps 758 mmHg 55%
    10:00 -1°C° 0 mm 6 mps 758 mmHg 51%
    11:00 +1°C° 0 mm 6 mps 758 mmHg 47%
    12:00 +2°C° 0 mm 6 mps 757 mmHg 43%
    13:00 +2°C° 0 mm 6 mps 757 mmHg 44%
    14:00 +2°C° 0 mm 6 mps 757 mmHg 45%
    15:00 +2°C° 0 mm 7 mps 756 mmHg 46%
    16:00 +1°C° 0 mm 6 mps 756 mmHg 51%
    17:00 -1°C° 0 mm 5 mps 756 mmHg 56%
    18:00 -2°C° 0 mm 5 mps 757 mmHg 61%
    19:00 -2°C° 0 mm 5 mps 757 mmHg 62%
    20:00 -4°C° 0 mm 5 mps 757 mmHg 64%
    21:00 -3°C° 0 mm 4 mps 757 mmHg 65%
    22:00 -3°C° 0 mm 4 mps 757 mmHg 66%
    23:00 -4°C° 0 mm 4 mps 757 mmHg 66%

    Tomorrow, 23 February, Friday

    Time Temperature Precipitation Wind Pressure Humidity
    00:00 -4°C° 0 mm 4 mps 757 mmHg 67%
    01:00 -4°C° 0 mm 4 mps 757 mmHg 67%
    02:00 -4°C° 0 mm 4 mps 757 mmHg 67%
    03:00 -4°C° 0 mm 4 mps 757 mmHg 67%
    04:00 -4°C° 0 mm 4 mps 757 mmHg 68%
    05:00 -4°C° 0 mm 4 mps 757 mmHg 69%
    06:00 -4°C° 0 mm 4 mps 757 mmHg 70%
    07:00 -4°C° 0 mm 5 mps 757 mmHg 65%
    08:00 -4°C° 0 mm 6 mps 757 mmHg 61%
    09:00 -3°C° 0 mm 6 mps 756 mmHg 56%
    10:00 -2°C° 0 mm 6 mps 756 mmHg 51%
    11:00 -1°C° 0 mm 7 mps 756 mmHg 47%
    12:00 0°C° 0 mm 7 mps 756 mmHg 42%
    13:00 0°C° 0 mm 7 mps 755 mmHg 40%
    14:00 0°C° 0 mm 7 mps 755 mmHg 39%
    15:00 +1°C° 0 mm 6 mps 755 mmHg 37%
    16:00 -1°C° 0 mm 6 mps 755 mmHg 39%
    17:00 -1°C° 0 mm 5 mps 755 mmHg 42%
    18:00 -4°C° 0 mm 5 mps 755 mmHg 44%
    19:00 -4°C° 0 mm 5 mps 755 mmHg 44%
    20:00 -4°C° 0 mm 5 mps 755 mmHg 43%
    21:00 -5°C° 0 mm 5 mps 756 mmHg 43%
    22:00 -5°C° 0 mm 5 mps 756 mmHg 42%
    23:00 -5°C° 0 mm 5 mps 756 mmHg 42%

    Day after tomorrow, 24 February, Saturday

    Time Temperature Precipitation Wind Pressure Humidity
    00:00 -5°C° 0 mm 5 mps 756 mmHg 41%
    01:00 -6°C° 0 mm 5 mps 756 mmHg 41%
    02:00 -6°C° 0 mm 5 mps 756 mmHg 41%
    03:00 -6°C° 0 mm 5 mps 756 mmHg 41%
    04:00 -6°C° 0 mm 5 mps 756 mmHg 40%
    05:00 -6°C° 0 mm 5 mps 756 mmHg 38%
    06:00 -6°C° 0 mm 6 mps 756 mmHg 37%
    07:00 -5°C° 0 mm 6 mps 756 mmHg 33%
    08:00 -4°C° 0 mm 7 mps 756 mmHg 30%
    09:00 -3°C° 0 mm 7 mps 757 mmHg 27%
    10:00 -1°C° 0 mm 8 mps 757 mmHg 27%
    11:00 0°C° 0 mm 8 mps 757 mmHg 27%
    12:00 +1°C° 0 mm 8 mps 756 mmHg 27%
    13:00 +2°C° 0 mm 8 mps 756 mmHg 31%
    14:00 +2°C° 0 mm 8 mps 756 mmHg 35%
    15:00 +2°C° 0 mm 8 mps 756 mmHg 38%
    16:00 0°C° 0 mm 7 mps 756 mmHg 43%
    17:00 -1°C° 0 mm 7 mps 757 mmHg 47%
    18:00 -2°C° 0 mm 6 mps 757 mmHg 52%
    19:00 -3°C° 0 mm 6 mps 757 mmHg 50%
    20:00 -4°C° 0 mm 6 mps 758 mmHg 47%
    21:00 -4°C° 0 mm 6 mps 758 mmHg 45%
    22:00 -5°C° 0 mm 6 mps 758 mmHg 47%
    23:00 -5°C° 0 mm 6 mps 758 mmHg 48%

    25 February, Sunday

    Time Temperature Precipitation Wind Pressure Humidity
    00:00 -5°C° 0 mm 5 mps 759 mmHg 49%
    01:00 -5°C° 0 mm 5 mps 759 mmHg 49%
    02:00 -6°C° 0 mm 5 mps 759 mmHg 48%
    03:00 -6°C° 0 mm 5 mps 759 mmHg 48%
    04:00 -6°C° 0 mm 6 mps 759 mmHg 46%
    05:00 -6°C° 0 mm 6 mps 759 mmHg 44%
    06:00 -6°C° 0 mm 6 mps 759 mmHg 43%
    07:00 -6°C° 0 mm 6 mps 760 mmHg 38%
    08:00 -6°C° 0 mm 7 mps 760 mmHg 34%
    09:00 -4°C° 0 mm 7 mps 760 mmHg 30%
    10:00 -3°C° 0 mm 7 mps 760 mmHg 27%
    11:00 -2°C° 0 mm 7 mps 760 mmHg 24%
    12:00 -1°C° 0 mm 7 mps 760 mmHg 22%
    13:00 -1°C° 0 mm 7 mps 760 mmHg 23%
    14:00 -1°C° 0 mm 7 mps 760 mmHg 23%
    15:00 -1°C° 0 mm 7 mps 760 mmHg 24%
    16:00 -2°C° 0 mm 6 mps 760 mmHg 28%
    17:00 -4°C° 0 mm 6 mps 760 mmHg 31%
    18:00 -5°C° 0 mm 5 mps 761 mmHg 34%
    19:00 -5°C° 0 mm 5 mps 761 mmHg 37%
    20:00 -6°C° 0 mm 5 mps 761 mmHg 39%
    21:00 -6°C° 0 mm 5 mps 762 mmHg 41%
    22:00 -6°C° 0 mm 5 mps 762 mmHg 43%
    23:00 -5°C° 0 mm 4 mps 762 mmHg 44%

    26 February, Monday

    Time Temperature Precipitation Wind Pressure Humidity
    00:00 -5°C° 0 mm 4 mps 762 mmHg 46%
    01:00 -7°C° 0 mm 4 mps 762 mmHg 47%
    02:00 -7°C° 0 mm 4 mps 762 mmHg 48%
    03:00 -7°C° 0 mm 4 mps 761 mmHg 49%
    04:00 -7°C° 0 mm 4 mps 761 mmHg 52%
    05:00 -7°C° 0 mm 4 mps 761 mmHg 54%
    06:00 -7°C° 0 mm 4 mps 761 mmHg 57%
    07:00 -7°C° 0 mm 5 mps 761 mmHg 54%
    08:00 -6°C° 0 mm 5 mps 761 mmHg 51%
    09:00 -5°C° 0 mm 6 mps 761 mmHg 48%
    10:00 -5°C° 0 mm 6 mps 761 mmHg 43%
    11:00 -4°C° 0 mm 6 mps 761 mmHg 39%
    12:00 -3°C° 0 mm 6 mps 760 mmHg 34%
    13:00 -3°C° 0 mm 6 mps 760 mmHg 35%
    14:00 -4°C° 0 mm 6 mps 760 mmHg 36%
    15:00 -4°C° 0 mm 6 mps 759 mmHg 37%
    16:00 -5°C° 0 mm 6 mps 759 mmHg 40%
    17:00 -6°C° 0 mm 5 mps 759 mmHg 43%
    18:00 -5°C° 0 mm 4 mps 759 mmHg 46%
    19:00 -7°C° 0 mm 4 mps 759 mmHg 47%
    20:00 -7°C° 0 mm 4 mps 759 mmHg 48%
    21:00 -7°C° 0 mm 4 mps 759 mmHg 49%
    22:00 -7°C° 0 mm 4 mps 759 mmHg 50%
    23:00 -7°C° 0 mm 4 mps 759 mmHg 51%

    27 February, Tuesday

    Time Temperature Precipitation Wind Pressure Humidity
    00:00 -8°C° 0 mm 4 mps 759 mmHg 53%
    01:00 -8°C° 0 mm 4 mps 758 mmHg 54%
    02:00 -8°C° 0 mm 4 mps 758 mmHg 56%
    03:00 -8°C° 0 mm 4 mps 758 mmHg 57%
    04:00 -7°C° 0 mm 3 mps 758 mmHg 55%
    05:00 -8°C° 0 mm 3 mps 757 mmHg 53%
    06:00 -8°C° 0 mm 3 mps 757 mmHg 51%
    07:00 -8°C° 0 mm 4 mps 757 mmHg 49%
    08:00 -7°C° 0 mm 4 mps 757 mmHg 47%
    09:00 -7°C° 0 mm 4 mps 757 mmHg 44%
    10:00 -5°C° 0 mm 4 mps 757 mmHg 42%
    11:00 -4°C° 0 mm 4 mps 757 mmHg 40%
    12:00 -5°C° 0 mm 5 mps 756 mmHg 39%
    13:00 -5°C° 0 mm 5 mps 756 mmHg 36%
    14:00 -4°C° 0 mm 5 mps 756 mmHg 34%
    15:00 -4°C° 0 mm 5 mps 755 mmHg 32%
    16:00 -4°C° 0 mm 4 mps 755 mmHg 34%
    17:00 -5°C° 0 mm 3 mps 755 mmHg 36%
    18:00 -6°C° 0 mm 3 mps 756 mmHg 38%
    19:00 -6°C° 0 mm 3 mps 756 mmHg 38%
    20:00 -6°C° 0 mm 2 mps 756 mmHg 38%
    21:00 -6°C° 0 mm 2 mps 756 mmHg 39%
    22:00 -6°C° 0 mm 2 mps 756 mmHg 39%
    23:00 -6°C° 0 mm 2 mps 756 mmHg 39%
    Show more